(228608) = 2002 BT5

Discovered at Socorro on 2002-01-18 by LINEAR.

Orbit

Orbit type: Main Belt

Note: WebGL enabled browser required.

epoch2023-02-25.0
epoch JD2460000.5
perihelion date2022-01-19.34863
perihelion JD2459598.84863
argument of perihelion (°)120.93944
ascending node (°)336.98065
inclination (°)8.29375
eccentricity0.2083844
perihelion distance (AU)2.0021431
Tisserand w.r.t. Jupiter3.4
ΔV w.r.t. Earth (km/sec)9.2
semimajor axis (AU)2.5291860
mean anomaly (°)98.41968
mean daily motion (°/day)0.24503760
aphelion distance (AU)3.056
period (years)4.02
P-vector [x]-0.14129958
P-vector [y]0.85194126
P-vector [z]0.50421277
Q-vector [x]-0.98835857
Q-vector [y]-0.09238079
Q-vector [z]-0.12088478
absolute magnitude15.88
phase slope0.15
uncertainty0
referenceMPO 745323
observations used637
oppositions13
arc length (days)7920
first opposition used2001
last opposition used2023
residual rms (arc-secs)0.62
perturbers coarse indicatorM-v
perturbers precise indicator003Ek
first observation date used2001-10-14.0
last observation date used2023-06-21.0
computer nameMPCLINUX
JD of orbit computation2456819.648406
perihelion JD uncertainty (days)1.0146E-04
argument of perihelion uncertainty (°)7.1765E-05
ascending node uncertainty (°)6.6040E-05
inclination uncertainty (°)8.8845E-06
eccentricity uncertainty 2.2075E-07
perihelion distance uncertainty (AU)5.6693E-07
Minimum Orbit Intersection Distances (in AU)
for orbit epoch: 2460000.5, reference: E2023-M85
Mercury1.68973
Venus1.28854
Earth1.03263
Mars0.40596
Jupiter2.1406
Saturn6.99436
Uranus16.0128
Neptune27.2141

Observations

647 total observations over interval: 2001 10 14.42656 – 2023 06 21.305785
These data are available for download (format description).

Date (UT) J2000 RA J2000 Dec Magn Location Ref
2001 10 14.42656 07 31 06.71 +31 20 46.7 20.4   704 – Lincoln Laboratory ETS, New Mexico MPS 50042
2001 10 14.44239 07 31 08.25 +31 20 46.0 20.2   704 – Lincoln Laboratory ETS, New Mexico MPS 50042
2001 10 14.45839 07 31 09.88 +31 20 44.4 20.1   704 – Lincoln Laboratory ETS, New Mexico MPS 50042
2001 10 14.47418 07 31 11.52 +31 20 44.1 19.7   704 – Lincoln Laboratory ETS, New Mexico MPS 50042
2001 11 11.43359 08 10 33.09 +31 02 01.3 19.7   704 – Lincoln Laboratory ETS, New Mexico MPS 50042
2001 11 11.44807 08 10 33.74 +31 02 02.1 20.1   704 – Lincoln Laboratory ETS, New Mexico MPS 50042
2001 11 11.46257 08 10 34.61 +31 02 02.1 20.3   704 – Lincoln Laboratory ETS, New Mexico MPS 50042
2001 11 11.47717 08 10 35.46 +31 02 02.7 20.1   704 – Lincoln Laboratory ETS, New Mexico MPS 50042
2001 11 17.42453 08 16 08.87 +31 01 47.4 18.7 R 699 – Lowell Observatory-LONEOS MPS 50042
2001 11 17.44578 08 16 09.88 +31 01 48.1   699 – Lowell Observatory-LONEOS MPS 50042
2001 11 17.46703 08 16 10.91 +31 01 48.1   699 – Lowell Observatory-LONEOS MPS 50042
2001 11 17.48825 08 16 11.89 +31 01 48.6   699 – Lowell Observatory-LONEOS MPS 50042
2001 12 14.37852 08 24 26.93 +31 28 14.8 19.4   704 – Lincoln Laboratory ETS, New Mexico MPS 50042
2001 12 14.39444 08 24 26.67 +31 28 17.4 19.7   704 – Lincoln Laboratory ETS, New Mexico MPS 50042
2001 12 14.42593 08 24 26.05 +31 28 19.3 19.8   704 – Lincoln Laboratory ETS, New Mexico MPS 50042
2001 12 14.44141 08 24 25.76 +31 28 21.1 19.1   704 – Lincoln Laboratory ETS, New Mexico MPS 50042
2001 12 22.29967 08 21 02.17 +31 40 39.8 18.7   704 – Lincoln Laboratory ETS, New Mexico MPS 50042
2001 12 22.31478 08 21 01.56 +31 40 41.2 19.0   704 – Lincoln Laboratory ETS, New Mexico MPS 50042
2001 12 22.32988 08 21 00.93 +31 40 42.9 18.8   704 – Lincoln Laboratory ETS, New Mexico MPS 50042
2001 12 22.34500 08 21 00.37 +31 40 43.8 18.7   704 – Lincoln Laboratory ETS, New Mexico MPS 50042
2001 12 22.36012 08 20 59.78 +31 40 45.9 18.8   704 – Lincoln Laboratory ETS, New Mexico MPS 50042
2002 01 05.33601 08 09 13.38 +31 52 55.4 17.7 R 699 – Lowell Observatory-LONEOS MPS 50042
2002 01 05.36100 08 09 11.70 +31 52 55.4   699 – Lowell Observatory-LONEOS MPS 50042
2002 01 05.38599 08 09 10.06 +31 52 55.4   699 – Lowell Observatory-LONEOS MPS 50042
2002 01 05.41100 08 09 08.46 +31 52 55.2   699 – Lowell Observatory-LONEOS MPS 50042
2002 01 08.32984 08 05 59.90 +31 52 16.9 17.8   704 – Lincoln Laboratory ETS, New Mexico MPS 50042
2002 01 08.34561 08 05 58.81 +31 52 16.7 18.2   704 – Lincoln Laboratory ETS, New Mexico MPS 50042
2002 01 08.36125 08 05 57.71 +31 52 16.3 18.3   704 – Lincoln Laboratory ETS, New Mexico MPS 50042
2002 01 08.37660 08 05 56.64 +31 52 15.7 18.1   704 – Lincoln Laboratory ETS, New Mexico MPS 50042
2002 01 08.39326 08 05 55.48 +31 52 15.2 18.0   704 – Lincoln Laboratory ETS, New Mexico MPS 50042
2002 01 18.24733 07 54 35.76 +31 38 19.6 17.8   704 – Lincoln Laboratory ETS, New Mexico MPS 47541
2002 01 18.26281 07 54 34.64 +31 38 17.2 18.3   704 – Lincoln Laboratory ETS, New Mexico MPS 47541
2002 01 18.27810 07 54 33.49 +31 38 15.5 18.2   704 – Lincoln Laboratory ETS, New Mexico MPS 47541
2002 01 18.29384 07 54 32.30 +31 38 13.4 18.1   704 – Lincoln Laboratory ETS, New Mexico MPS 47541
2002 01 21.24659 07 51 09.19 +31 30 14.4 18.5   704 – Lincoln Laboratory ETS, New Mexico MPS 47541
2002 01 21.26213 07 51 08.11 +31 30 12.4 18.7   704 – Lincoln Laboratory ETS, New Mexico MPS 47541
2002 01 21.27853 07 51 06.89 +31 30 08.7 18.8   704 – Lincoln Laboratory ETS, New Mexico MPS 47541
2002 01 21.29377 07 51 05.83 +31 30 06.3 18.7   704 – Lincoln Laboratory ETS, New Mexico MPS 47541
2002 01 21.30890 07 51 04.74 +31 30 03.2 18.5   704 – Lincoln Laboratory ETS, New Mexico MPS 47541
2002 02 03.22188 07 38 06.87 +30 35 28.0 17.9 R 699 – Lowell Observatory-LONEOS MPS 55325
2002 02 03.23413 07 38 06.20 +30 35 24.3 17.9   644 – Palomar Mountain/NEAT MPS 55325
2002 02 03.24531 07 38 05.67 +30 35 20.5   699 – Lowell Observatory-LONEOS MPS 55325
2002 02 03.25512 07 38 05.09 +30 35 17.8 17.8   644 – Palomar Mountain/NEAT MPS 55325
2002 02 03.26872 07 38 04.37 +30 35 12.8   699 – Lowell Observatory-LONEOS MPS 55325
2002 02 03.27631 07 38 03.98 +30 35 10.9 17.8   644 – Palomar Mountain/NEAT MPS 55325
2002 02 03.29215 07 38 03.15 +30 35 04.5   699 – Lowell Observatory-LONEOS MPS 55325
2002 02 04.23105 07 37 17.39 +30 30 03.0 18.6   644 – Palomar Mountain/NEAT MPS 52564
2002 02 04.25210 07 37 16.29 +30 29 56.1 18.4   644 – Palomar Mountain/NEAT MPS 52564
2002 02 04.27300 07 37 15.22 +30 29 49.7 18.4   644 – Palomar Mountain/NEAT MPS 52564
2002 02 08.24117 07 34 21.34 +30 07 06.0 19.0   704 – Lincoln Laboratory ETS, New Mexico MPS 55325
2002 02 08.25548 07 34 20.75 +30 07 00.0 19.1   704 – Lincoln Laboratory ETS, New Mexico MPS 55325
2002 02 08.26975 07 34 20.10 +30 06 54.9 19.2   704 – Lincoln Laboratory ETS, New Mexico MPS 55325
2002 02 08.28414 07 34 19.49 +30 06 49.5 19.2   704 – Lincoln Laboratory ETS, New Mexico MPS 55325
2002 02 08.29912 07 34 18.88 +30 06 43.9 19.2   704 – Lincoln Laboratory ETS, New Mexico MPS 55325
2002 02 12.24149 07 32 01.58 +29 42 24.1 18.7   704 – Lincoln Laboratory ETS, New Mexico MPS 50042
2002 02 12.25689 07 32 01.04 +29 42 17.9 19.0   704 – Lincoln Laboratory ETS, New Mexico MPS 50042
2002 02 12.27279 07 32 00.50 +29 42 12.1 19.0   704 – Lincoln Laboratory ETS, New Mexico MPS 50042
2002 02 12.28756 07 32 00.03 +29 42 05.8 18.7   704 – Lincoln Laboratory ETS, New Mexico MPS 50042
2002 02 12.30364 07 31 59.46 +29 42 00.0 18.9   704 – Lincoln Laboratory ETS, New Mexico MPS 50042
2002 02 22.14525 07 29 00.51 +28 35 36.2 18.7   644 – Palomar Mountain/NEAT MPS 52564
2002 02 22.15568 07 29 00.43 +28 35 31.8 18.6   644 – Palomar Mountain/NEAT MPS 52564
2002 02 22.16614 07 29 00.32 +28 35 27.3 18.8   644 – Palomar Mountain/NEAT MPS 52564
2002 03 04.11694 07 29 53.68 +27 23 56.5 19.0   644 – Palomar Mountain/NEAT MPS 52564
2002 03 04.13794 07 29 53.98 +27 23 47.1 19.0   644 – Palomar Mountain/NEAT MPS 52564
2002 03 04.16015 07 29 54.28 +27 23 37.6 19.1   644 – Palomar Mountain/NEAT MPS 52564
2005 10 28.36784 07 34 44.07 +32 26 03.4 19.6 V 703 – Catalina Sky Survey MPS 149413
2005 10 28.37266 07 34 44.50 +32 26 03.1 19.5 V 703 – Catalina Sky Survey MPS 149413
2005 10 28.37751 07 34 44.86 +32 26 02.8 20.0 V 703 – Catalina Sky Survey MPS 149413
2005 10 28.38238 07 34 45.22 +32 26 04.3 19.7 V 703 – Catalina Sky Survey MPS 149413
2005 11 02.41395 07 40 58.38 +32 29 29.5 19.6   704 – Lincoln Laboratory ETS, New Mexico MPS 149413
2005 11 02.42600 07 40 59.11 +32 29 31.0 19.6   704 – Lincoln Laboratory ETS, New Mexico MPS 149413
2005 11 02.43800 07 40 59.97 +32 29 31.8 19.4   704 – Lincoln Laboratory ETS, New Mexico MPS 149413
2005 11 27.41222 07 59 28.50 +33 02 57.7 18.2 R 699 – Lowell Observatory-LONEOS MPS 151982
2005 11 27.44420 07 59 28.84 +33 03 00.4   699 – Lowell Observatory-LONEOS MPS 151982
2005 11 27.47617 07 59 29.29 +33 03 05.6   699 – Lowell Observatory-LONEOS MPS 151982
2005 11 27.50818 07 59 29.69 +33 03 09.4   699 – Lowell Observatory-LONEOS MPS 151982
2005 12 14.31370 07 57 36.38 +33 38 39.2 18.5 R 699 – Lowell Observatory-LONEOS MPS 155252
2005 12 14.32841 07 57 35.88 +33 38 41.9   699 – Lowell Observatory-LONEOS MPS 155252
2005 12 14.34306 07 57 35.46 +33 38 41.6   699 – Lowell Observatory-LONEOS MPS 155252
2005 12 14.35773 07 57 34.98 +33 38 44.2   699 – Lowell Observatory-LONEOS MPS 155252
2005 12 21.23623 07 53 18.70 +33 50 56.4 18.0 V 703 – Catalina Sky Survey MPS 155804
2005 12 21.24425 07 53 18.38 +33 50 57.5 18.0 V 703 – Catalina Sky Survey MPS 155804
2005 12 21.25228 07 53 17.98 +33 50 58.2 18.3 V 703 – Catalina Sky Survey MPS 155804
2005 12 21.26030 07 53 17.59 +33 50 59.3 18.1 V 703 – Catalina Sky Survey MPS 155804
2005 12 24.33044 07 50 47.68 +33 55 02.2 18.4   704 – Lincoln Laboratory ETS, New Mexico MPS 156505
2005 12 24.34353 07 50 46.93 +33 55 03.2 18.5   704 – Lincoln Laboratory ETS, New Mexico MPS 156505
2005 12 24.35659 07 50 46.19 +33 55 03.8 18.5   704 – Lincoln Laboratory ETS, New Mexico MPS 156505
2005 12 24.36969 07 50 45.49 +33 55 04.9 18.9   704 – Lincoln Laboratory ETS, New Mexico MPS 156505
